COSMOS 1275 DEB, 39957

Orbit data source: Space-Track

COSMOS 1275 DEB, 39957 is space debris in LEO originally from a launch on Thu, 04 Jun 1981 UTC launched from the Plesetsk Missile And Space Complex (PKMTR). Debris objects in space refer to the collection of defunct objects orbiting the Earth. Examples of debris include non-operational satellites, rocket bodies, and fragments generated from explosions, collisions, or faulty payload assembly.

Loading next visibility...
Identifier
39957, 1981-053NT
Orbit
LEO
Country
Flag of CISCIS
Related business
Manufacturer
Unknown
Mission
Spacecraft
Bus & Motor
Unknown
Mass
Unknown
Launch date (UTC)
1981-06-04 (45 years ago)
Launch vehicle
Unknown
Launch site
Plesetsk Missile And Space Complex (PKMTR)
Object type
Payload
Rocket body
Debris
Shape & HBR
Unknown shape, 0.1 m
Radar Cross Section
Small (<0.1 m²)

Expand to show TLE details & history
Last TLE update: 13 hours ago

TLE from 13 hours ago
0 COSMOS 1275 DEB
1 39957U 81053NT  26254.98544023  .00000074  00000-0  61137-4 0  9997
2 39957  82.9284 150.9416 0038801  69.4689 303.3578 13.74690878615572
Epoch: 2026-09-11T23:39Z
TLE epoch observation values (Epoch: 2026-09-11T23:39:02.035Z)
Latitude
12.31761°
Longitude
166.72631°
Altitude
969.291 km
Speed
7.376 km/s
True Right ascension
10h 09m 56s
True Declination
12° 14' 54"
Sunlit
Object was in daylight at epoch
Visualization orbit readout
Latitude
Unknown
Longitude
Unknown
Altitude
Unknown
Speed
Unknown
Apparent Right ascension
Unknown
Apparent Declination
Unknown
Sunlit
N/A
Visualization observer readout
Local Sidereal Time
04:45:00
Azimuth
Unknown
Elevation
Unknown
Doppler factor
Unknown
Orbital elements
Apogee altitude
1,008.478 km
Perigee altitude
951.378 km
Semi-major axis
7,358.065 km
Eccentricity
0.00388
Inclination
82.9284°
RAAN
150.9416°
Arg. of periapsis
69.4689°
True anomaly
302.98543°
Mean anomaly
303.3578°
Eccentric anomaly
303.17172°
Mean motion
3.43873 °/min
Orbital period
104.69 mins
BSTAR
0.000061137
Loading maneuver chart data...
Computing Atmospheric mass density...
Loading historical data...
Loading historical data...
Loading historical data...
Loading historical data...
Loading historical data...
Loading historical data...
Loading historical data...

Documentation

Showing up to 5 results
|